Regional Weather Roundup
Issued by NWS Bismarck, ND

Home | Current Version | Previous Version | Text Only | Print | Product List | Glossary On
Versions: 1 2 3 4 5 6 7 8 9 10 11 12 13 14 15 16 17 18 19 20 21 22 23 24 25 26 27 28 29 30 31 32 33 34 35 36 37 38 39 40 41 42 43 44 45 46 47 48 49 50
000
ASUS43 KBIS 291002
RWRBIS

NWR BROADCAST TEXT
NATIONAL WEATHER SERVICE BISMARCK ND
500 AM CDT SUN MAY 29 2016

NOTE: "FAIR" INDICATES FEW OR NO CLOUDS BELOW 12,000 FEET WITH NO
SIGNIFICANT WEATHER AND/OR OBSTRUCTIONS TO VISIBILITY.


CITY           SKY/WX    TMP DP  RH WIND       PRES   REMARKS
WILLISTON      CLEAR     44  43  96 CALM      29.98S FOG
MINOT          CLEAR     54  51  90 SW10      29.94S
MINOT AFB      CLEAR     50  49  97 W8        29.93S
BISMARCK       CLEAR     50  49  96 CALM      29.99R
DICKINSON      PTCLDY    46  43  89 W7        30.00R
GARRISON         N/A     49  48  97 W5        29.97R
HETTINGER ARPT FOG       39  38  96 CALM      30.04R VSB 1/4
JAMESTOWN      MOCLDY    53  53 100 CALM      29.91S FOG
CARRINGTON     PTSUNNY   57  55  94 W5        29.95S FOG
OAKES            N/A    N/A N/A N/A MISG        N/A
STANLEY        FAIR      50  50 100 W7        29.99S
$$

CITY           SKY/WX    TMP DP  RH WIND       PRES   REMARKS
GRAND FORKS    CLOUDY    60  58  92 NW8       29.87S
GRAND FORKS AF CLOUDY    59  59 100 N8        29.88S
DEVILS LAKE    CLOUDY    58  56  93 NW6       29.93R
FARGO          MOCLDY    58  56  93 W6        29.88S
GRAFTON        PTSUNNY   57  57 100 N9        29.90R
GWINNER        FAIR      55  55 100 W7        29.91S
LANGDON        CLOUDY    55  55 100 N6        29.92S
$$

CITY           SKY/WX    TMP DP  RH WIND       PRES   REMARKS
ABERDEEN       PTCLDY    57  52  83 W9        29.94R
MOBRIDGE       CLEAR     52  49  89 NW7       29.97R
BUFFALO          N/A     48  41  76 W6        29.98S
RAPID CITY     CLEAR     44  42  93 W5        30.06S
GLASGOW        CLEAR     48  37  65 NW6       29.99R
SIDNEY         CLEAR     44  40  85 SW7       30.00S
WOLF POINT     CLEAR     40  38  93 SW3       30.00S
GLENDIVE       MOCLDY    48  39  71 CALM      30.04S
MILES CITY     CLEAR     46  42  86 NW5       30.02S
BAKER          CLEAR     43  38  82 CALM      30.04S
$$

CITY           SKY/WX    TMP DP  RH WIND       PRES   REMARKS
BILLINGS       CLEAR     46  39  76 N3        30.05S
GREAT FALLS    CLOUDY    43  34  70 S10       30.03R
$$





USA.gov is the U.S. government's official web portal to all federal, state and local government web resources and services.